Satellite: FCAL
Catalog number: 29667
Epoch time:      08045.88057851
Element set:     751
Inclination:      051.6299 deg
RA of node:       251.3016 deg
Eccentricity:    0.0008706
Arg of perigee:   216.8535 deg
Mean anomaly:     143.1870 deg
Mean motion:   16.01706291 rev/day
Decay rate:     4.9040e-04 rev/day^2
Epoch rev:            6670
Checksum:              303

Satellite: FALCON
Catalog number: 30776
Epoch time:      08044.75246481
Element set:    0260
Inclination:      035.4321 deg
RA of node:       188.1043 deg
Eccentricity:    0.0001785
Arg of perigee:   344.6798 deg
Mean anomaly:     015.3864 deg
Mean motion:   15.02877839 rev/day
Decay rate:       3.83e-06 rev/day^2
Epoch rev:           05141
Checksum:              300

Satellite: MAST
Catalog number: 31126
Epoch time:      08044.77085092
Element set:    0256
Inclination:      098.0541 deg
RA of node:       114.0977 deg
Eccentricity:    0.0095083
Arg of perigee:   358.1447 deg
Mean anomaly:     001.9373 deg
Mean motion:   14.53398838 rev/day
Decay rate:        3.3e-07 rev/day^2
Epoch rev:           04394
Checksum:              304

Satellite: CAPE1
Catalog number: 31130
Epoch time:      08044.73415967
Element set:    0245
Inclination:      098.0531 deg
RA of node:       113.3567 deg
Eccentricity:    0.0102862
Arg of perigee:   000.3360 deg
Mean anomaly:     359.7883 deg
Mean motion:   14.51930907 rev/day
Decay rate:        9.3e-07 rev/day^2
Epoch rev:           04366
Checksum:              284

/EX





More information about the Keps mailing list